• En España
  • Lista de países
  • Para 7 días
  • Temperatura del agua
  • Mapa Satelital
  • El tiempo en el mapa
  • Informadores
  • user-avatar
    Iniciar sesión

    Tiempo cada hora Stara Zagora

    Hoy, 19 Septiembre, Miércoles

    Tiempo Temperatura Precipitaciones Viento Presión Humedad
    00:00 +16°C° 0 mm 1 mps 747 mmHg 69%
    01:00 +16°C° 0 mm 1 mps 747 mmHg 71%
    02:00 +15°C° 0 mm 1 mps 747 mmHg 73%
    03:00 +15°C° 0 mm 1 mps 747 mmHg 74%
    04:00 +15°C° 0 mm 1 mps 747 mmHg 76%
    05:00 +15°C° 0 mm 1 mps 747 mmHg 77%
    06:00 +16°C° 0 mm 1 mps 747 mmHg 73%
    07:00 +18°C° 0 mm 1 mps 747 mmHg 69%
    08:00 +20°C° 0 mm 1 mps 747 mmHg 64%
    09:00 +21°C° 0 mm 1 mps 747 mmHg 58%
    10:00 +23°C° 0 mm 2 mps 747 mmHg 52%
    11:00 +25°C° 0 mm 2 mps 747 mmHg 45%
    12:00 +26°C° 0 mm 2 mps 747 mmHg 41%
    13:00 +27°C° 0 mm 2 mps 747 mmHg 37%
    14:00 +28°C° 0 mm 3 mps 746 mmHg 32%
    15:00 +27°C° 0 mm 3 mps 746 mmHg 33%
    16:00 +27°C° 0 mm 3 mps 746 mmHg 34%
    17:00 +27°C° 0 mm 3 mps 745 mmHg 35%
    18:00 +25°C° 0 mm 3 mps 746 mmHg 42%
    19:00 +21°C° 0 mm 2 mps 746 mmHg 49%
    20:00 +19°C° 0 mm 2 mps 746 mmHg 56%
    21:00 +18°C° 0 mm 2 mps 746 mmHg 61%
    22:00 +18°C° 0 mm 1 mps 746 mmHg 67%
    23:00 +18°C° 0 mm 1 mps 746 mmHg 72%

    Mañana, 20 Septiembre, Jueves

    Tiempo Temperatura Precipitaciones Viento Presión Humedad
    00:00 +16°C° 0 mm 1 mps 746 mmHg 74%
    01:00 +16°C° 0 mm 1 mps 746 mmHg 76%
    02:00 +15°C° 0 mm 1 mps 746 mmHg 78%
    03:00 +15°C° 0 mm 1 mps 746 mmHg 79%
    04:00 +15°C° 0 mm 1 mps 746 mmHg 79%
    05:00 +14°C° 0 mm 1 mps 746 mmHg 80%
    06:00 +16°C° 0 mm 1 mps 746 mmHg 74%
    07:00 +18°C° 0 mm 1 mps 746 mmHg 67%
    08:00 +20°C° 0 mm 1 mps 746 mmHg 61%
    09:00 +22°C° 0 mm 1 mps 746 mmHg 53%
    10:00 +24°C° 0 mm 1 mps 746 mmHg 45%
    11:00 +26°C° 0 mm 2 mps 746 mmHg 37%
    12:00 +27°C° 0 mm 2 mps 746 mmHg 34%
    13:00 +28°C° 0 mm 2 mps 745 mmHg 32%
    14:00 +29°C° 0 mm 3 mps 745 mmHg 29%
    15:00 +28°C° 0 mm 3 mps 745 mmHg 31%
    16:00 +28°C° 0 mm 3 mps 745 mmHg 32%
    17:00 +28°C° 0 mm 3 mps 744 mmHg 34%
    18:00 +26°C° 0 mm 2 mps 744 mmHg 41%
    19:00 +24°C° 0 mm 2 mps 745 mmHg 48%
    20:00 +20°C° 0 mm 2 mps 745 mmHg 54%
    21:00 +20°C° 0 mm 2 mps 745 mmHg 59%
    22:00 +20°C° 0 mm 1 mps 745 mmHg 64%
    23:00 +19°C° 0 mm 1 mps 745 mmHg 69%

    Pasado mañana, 21 Septiembre, Viernes

    Tiempo Temperatura Precipitaciones Viento Presión Humedad
    00:00 +19°C° 0 mm 1 mps 745 mmHg 70%
    01:00 +19°C° 0 mm 1 mps 745 mmHg 71%
    02:00 +18°C° 0 mm 1 mps 745 mmHg 73%
    03:00 +18°C° 0 mm 1 mps 745 mmHg 73%
    04:00 +18°C° 0 mm 1 mps 745 mmHg 72%
    05:00 +16°C° 0 mm 1 mps 744 mmHg 72%
    06:00 +19°C° 0 mm 1 mps 745 mmHg 66%
    07:00 +20°C° 0 mm 1 mps 745 mmHg 61%
    08:00 +21°C° 0 mm 1 mps 745 mmHg 55%
    09:00 +23°C° 0 mm 1 mps 745 mmHg 48%
    10:00 +25°C° 0 mm 1 mps 745 mmHg 41%
    11:00 +27°C° 0 mm 2 mps 745 mmHg 34%
    12:00 +28°C° 0 mm 2 mps 745 mmHg 32%
    13:00 +29°C° 0 mm 2 mps 745 mmHg 29%
    14:00 +30°C° 0 mm 2 mps 744 mmHg 26%
    15:00 +30°C° 0 mm 2 mps 744 mmHg 28%
    16:00 +29°C° 0 mm 2 mps 744 mmHg 29%
    17:00 +29°C° 0 mm 2 mps 744 mmHg 31%
    18:00 +27°C° 0 mm 2 mps 744 mmHg 37%
    19:00 +25°C° 0 mm 2 mps 744 mmHg 43%
    20:00 +21°C° 0 mm 2 mps 744 mmHg 49%
    21:00 +21°C° 0 mm 2 mps 744 mmHg 54%
    22:00 +21°C° 0 mm 1 mps 744 mmHg 59%
    23:00 +20°C° 0 mm 1 mps 744 mmHg 65%

    22 Septiembre, Sábado

    Tiempo Temperatura Precipitaciones Viento Presión Humedad
    00:00 +20°C° 0 mm 1 mps 744 mmHg 67%
    01:00 +19°C° 0 mm 1 mps 744 mmHg 70%
    02:00 +19°C° 0 mm 1 mps 744 mmHg 73%
    03:00 +19°C° 0 mm 1 mps 744 mmHg 74%
    04:00 +18°C° 0 mm 1 mps 744 mmHg 74%
    05:00 +18°C° 0 mm 1 mps 744 mmHg 75%
    06:00 +19°C° 0 mm 1 mps 744 mmHg 69%
    07:00 +21°C° 0 mm 1 mps 744 mmHg 63%
    08:00 +22°C° 0 mm 1 mps 744 mmHg 57%
    09:00 +24°C° 0 mm 1 mps 744 mmHg 50%
    10:00 +26°C° 0 mm 1 mps 744 mmHg 42%
    11:00 +28°C° 0 mm 1 mps 745 mmHg 35%
    12:00 +29°C° 0 mm 1 mps 744 mmHg 32%
    13:00 +30°C° 0 mm 1 mps 744 mmHg 29%
    14:00 +31°C° 0 mm 1 mps 743 mmHg 26%
    15:00 +31°C° 0 mm 1 mps 743 mmHg 27%
    16:00 +30°C° 0 mm 1 mps 743 mmHg 27%
    17:00 +30°C° 0 mm 1 mps 742 mmHg 28%
    18:00 +28°C° 0 mm 1 mps 743 mmHg 31%
    19:00 +26°C° 0 mm 1 mps 743 mmHg 35%
    20:00 +24°C° 0 mm 1 mps 743 mmHg 38%
    21:00 +23°C° 0 mm 1 mps 743 mmHg 41%
    22:00 +22°C° 0 mm 1 mps 743 mmHg 43%
    23:00 +22°C° 0 mm 1 mps 743 mmHg 46%

    23 Septiembre, Domingo

    Tiempo Temperatura Precipitaciones Viento Presión Humedad
    00:00 +21°C° 0 mm 1 mps 743 mmHg 47%
    01:00 +21°C° 0 mm 1 mps 743 mmHg 49%
    02:00 +20°C° 0 mm 1 mps 743 mmHg 51%
    03:00 +20°C° 0 mm 1 mps 743 mmHg 51%
    04:00 +20°C° 0 mm 1 mps 743 mmHg 51%
    05:00 +20°C° 0 mm 1 mps 743 mmHg 51%
    06:00 +20°C° 0 mm 2 mps 743 mmHg 49%
    07:00 +21°C° 0 mm 2 mps 743 mmHg 46%
    08:00 +22°C° 0 mm 3 mps 744 mmHg 43%
    09:00 +25°C° 0 mm 3 mps 744 mmHg 40%
    10:00 +27°C° 0 mm 3 mps 744 mmHg 38%
    11:00 +29°C° 0 mm 4 mps 744 mmHg 35%
    12:00 +30°C° 0 mm 4 mps 744 mmHg 34%
    13:00 +30°C° 0 mm 4 mps 744 mmHg 33%
    14:00 +32°C° 0 mm 4 mps 743 mmHg 32%
    15:00 +30°C° 0 mm 4 mps 743 mmHg 34%
    16:00 +29°C° 0 mm 4 mps 743 mmHg 36%
    17:00 +28°C° 0 mm 4 mps 743 mmHg 38%
    18:00 +26°C° 0 mm 3 mps 744 mmHg 42%
    19:00 +24°C° 0 mm 3 mps 744 mmHg 46%
    20:00 +21°C° 0 mm 3 mps 745 mmHg 50%
    21:00 +20°C° 0 mm 3 mps 745 mmHg 54%
    22:00 +20°C° 0 mm 2 mps 745 mmHg 57%
    23:00 +19°C° 0 mm 2 mps 745 mmHg 60%

    24 Septiembre, Lunes

    Tiempo Temperatura Precipitaciones Viento Presión Humedad
    00:00 +19°C° 0 mm 2 mps 745 mmHg 64%
    01:00 +18°C° 0 mm 2 mps 745 mmHg 67%
    02:00 +17°C° 0 mm 2 mps 745 mmHg 71%
    03:00 +17°C° 0 mm 2 mps 744 mmHg 72%
    04:00 +16°C° 0 mm 2 mps 744 mmHg 73%
    05:00 +16°C° 0 mm 1 mps 744 mmHg 74%
    06:00 +17°C° 0 mm 2 mps 744 mmHg 71%
    07:00 +18°C° 0 mm 2 mps 744 mmHg 69%
    08:00 +19°C° 0 mm 2 mps 744 mmHg 66%
    09:00 +20°C° 0 mm 2 mps 743 mmHg 61%
    10:00 +23°C° 0 mm 2 mps 743 mmHg 57%
    11:00 +25°C° 0 mm 2 mps 743 mmHg 52%
    12:00 +26°C° 0 mm 2 mps 742 mmHg 48%
    13:00 +27°C° 0 mm 2 mps 741 mmHg 44%
    14:00 +29°C° 0 mm 2 mps 741 mmHg 40%
    15:00 +29°C° 0 mm 2 mps 740 mmHg 40%
    16:00 +29°C° 0 mm 2 mps 740 mmHg 41%
    17:00 +29°C° 0 mm 3 mps 739 mmHg 41%
    18:00 +27°C° 0 mm 3 mps 739 mmHg 46%
    19:00 +25°C° 0 mm 3 mps 739 mmHg 51%
    20:00 +22°C° 0 mm 3 mps 739 mmHg 56%
    21:00 +22°C° 0 mm 3 mps 738 mmHg 61%
    22:00 +21°C° 0 mm 3 mps 738 mmHg 65%
    23:00 +20°C° 0 mm 3 mps 738 mmHg 70%
    Mostrar más